[[{"header":{"parameterUnit":"m.s-1","parameterCategory":1,"la1":30.2991,"la2":30.254,"lo1":-89.0895,"lo2":-89.0444,"dy":0.0017,"dx":0.0017,"nx":28,"ny":28,"refTime":"2024-07-15T03:00:00:Z","depth":0,"parameterNumber":2,"parameterNumberName":"U-component_of_WINDS"},"data":[0,0,0,0,0,0,0,0,0,0,0,0,0,0,0,0,0,0,0,0,0,0,0,0,0,0,0,0,0,0,0,0,0,0,0,0,0,0,0,0,0,0,0,0,0,0,0,0,0,0,0,0,0,0,0,0,0,0,0.6689,0.6689,0,0.6763,0.6764,0.6765,0.6785,0.6785,0.6784,0.6784,0.6864,0.6866,0.6869,0,0,0,0,0,0,0,0,0,0,0,0,0,0.6568,0.657,0.6688,0.6689,0.669,0.6763,0.6764,0.6765,0.6785,0.6785,0.6784,0.6783,0.6863,0.6866,0.6869,0,0,0,0,0,0,0,0,0,0,0,0,0,0.6629,0.6571,0.6688,0.6709,0.6712,0.6763,0.6764,0.6765,0.6785,0.6785,0.6784,0.6783,0.6862,0.6866,0.6869,0.6906,0,0,0.6881,0.6883,0,0,0,0,0,0,0,0,0.6626,0.6634,0.6705,0.6708,0.6711,0.6764,0.6751,0.6813,0.6785,0.6757,0.6784,0.6783,0.6831,0.6838,0.6853,0.691,0.6914,0.6881,0.6884,0.6885,0.6887,0,0,0,0,0,0,0,0.6621,0.6631,0.6718,0.6706,0.671,0.6716,0.6724,0.6763,0.6797,0.676,0.6761,0.677,0.6833,0.6849,0.6855,0.6915,0.6881,0.6885,0.6887,0.6889,0.7007,0.7008,0,0,0,0,0,0,0.6613,0.6627,0.6716,0.672,0.6666,0.6719,0.6728,0.6748,0.6797,0.6804,0.677,0.677,0.6843,0.6851,0.6858,0.6906,0.6885,0.6889,0.6891,0.7006,0.7007,0.7008,0,0,0,0,0,0,0.661,0.6621,0.6713,0.6674,0.6686,0.6721,0.6744,0.6749,0.6766,0.6805,0.6811,0.6781,0.6843,0.6853,0.6894,0.6909,0.6891,0.6894,0.7005,0.7007,0.7008,0.7,0,0,0,0,0,0,0.6607,0.662,0.6633,0.6674,0.6688,0.6746,0.6745,0.6751,0.6772,0.6773,0.6816,0.6823,0.6843,0.6888,0.6898,0.6914,0.6897,0.7004,0.7006,0.7007,0.6999,0.7001,0.7002,0,0,0,0,0,0.6602,0.6629,0.6634,0.6644,0.6705,0.6747,0.6755,0.6777,0.6773,0.6788,0.6813,0.6822,0.6905,0.6893,0.6904,0.692,0.7003,0.7005,0.7007,0.6999,0.7001,0.7002,0,0,0,0,0,0,0.659,0.6634,0.664,0.668,0.671,0.675,0.6769,0.6778,0.6811,0.681,0.6837,0.6847,0.6887,0.6908,0.6893,0.6959,0.6955,0.6959,0.6944,0.6947,0.6948,0.6943,0.69,0,0,0,0,0,0.6591,0.662,0.6658,0.6689,0.6704,0.6734,0.6753,0.6767,0.6799,0.6812,0.684,0.6872,0.6905,0.6927,0.696,0.7002,0.7013,0.7019,0.7021,0.7022,0.7026,0.7051,0.7054,0.7015,0.7015,0.7015,0,0,0.6595,0.6623,0.664,0.6688,0.6712,0.6743,0.6744,0.6776,0.68,0.6817,0.6858,0.688,0.6917,0.6959,0.6979,0.6978,0.7039,0.7024,0.7025,0.7028,0.7053,0.7057,0.706,0.7016,0.7016,0.7015,0,0,0.6618,0.6641,0.6671,0.6695,0.6731,0.6751,0.6758,0.6798,0.6813,0.6854,0.6868,0.6897,0.6953,0.698,0.7001,0.7034,0.7044,0.7044,0.7053,0.7077,0.708,0.7083,0.7096,0.71,0.7047,0.7047,0.7047,0,0.6619,0.6664,0.6685,0.6717,0.6738,0.6754,0.6785,0.6807,0.6853,0.6868,0.6866,0.6938,0.6964,0.7013,0.7021,0.7037,0.7047,0.704,0.7077,0.7081,0.7084,0.7097,0.7101,0.7047,0.7047,0.7047,0.7047,0,0.6664,0.6695,0.6715,0.6757,0.6781,0.6812,0.6839,0.686,0.6873,0.6893,0.6936,0.6967,0.7008,0.702,0.7033,0.7071,0.707,0.7072,0.7068,0.7087,0.71,0.7104,0.7047,0.7047,0.7047,0.7047,0,0,0.6682,0.6735,0.6742,0.6762,0.6803,0.6829,0.6861,0.6899,0.6918,0.6949,0.6978,0.7025,0.7028,0.7051,0.7067,0.7088,0.7114,0.7088,0.709,0.7093,0.716,0.7159,0.7164,0.712,0.7121,0.7122,0.7157,0,0.6711,0.6767,0.6787,0.6835,0.6865,0.6881,0.6909,0.6938,0.6958,0.6988,0.7011,0.7045,0.7045,0.7059,0.7081,0.7106,0.7128,0.7104,0.7149,0.715,0.714,0.717,0.7169,0.72,0.7162,0.7163,0.7163,0,0.6752,0.6783,0.6833,0.6871,0.6885,0.6909,0.6947,0.6974,0.7008,0.7021,0.7047,0.7062,0.7098,0.7091,0.7141,0.7124,0.7144,0.7159,0.7161,0.7167,0.7159,0.7178,0.7211,0.7216,0.7171,0.7171,0.717,0,0.6761,0.6815,0.6852,0.6869,0.6914,0.6931,0.6951,0.6985,0.7006,0.7039,0.7054,0.709,0.7111,0.714,0.7164,0.7156,0.7213,0.7208,0.7226,0.7226,0.7238,0.7237,0.7276,0.7249,0.7249,0.7249,0.7249,0,0.6793,0.6823,0.6857,0.688,0.6915,0.6938,0.6973,0.6994,0.7023,0.7052,0.7068,0.7094,0.7124,0.7155,0.7175,0.7214,0.7223,0.7236,0.7241,0.7235,0.7234,0.7249,0.7248,0.725,0.725,0.725,0.7249,0,0.6809,0.6833,0.6875,0.6914,0.6924,0.6949,0.6983,0.7007,0.7027,0.7063,0.7073,0.7106,0.7143,0.717,0.7218,0.7231,0.7274,0.7279,0.7263,0.7265,0.7283,0.7281,0.7334,0.7342,0.7308,0.7309,0.7309,0,0.6828,0.6851,0.6893,0.6912,0.6932,0.6963,0.6985,0.7009,0.7032,0.7073,0.7092,0.713,0.7162,0.7221,0.725,0.7287,0.7294,0.7309,0.73,0.7293,0.7295,0.7294,0.7297,0.7311,0.7311,0.7312,0.7312,0,0.6859,0.687,0.69,0.6935,0.6961,0.699,0.7019,0.7034,0.7064,0.7089,0.7126,0.7151,0.72,0.7238,0.7278,0.7301,0.7312,0.7314,0.7321,0.7316,0.7306,0.7313,0.7268,0.7313,0.7313,0.7313,0.7313,0.7313,0.6878,0.69,0.6933,0.6966,0.6991,0.7018,0.7042,0.7065,0.7097,0.7138,0.715,0.719,0.7224,0.7279,0.7302,0.7334,0.7333,0.7342,0.7345,0.7347,0.7347,0.73,0.7341,0.7341,0.7341,0.7341,0.7341,0,0.6911,0.6932,0.6963,0.7003,0.703,0.7036,0.7069,0.7092,0.7126,0.7157,0.7187,0.7231,0.7268,0.73,0.7339,0.7359,0.7365,0.7368,0.7368,0.7373,0.7345,0.7336,0.7363,0.7363,0.7363,0.7363,0.7363,0.7363,0.6931,0.6969,0.6984,0.7034,0.7056,0.7094,0.7112,0.7138,0.7162,0.721,0.7241,0.7261,0.7292,0.7334,0.7368,0.7377,0.7391,0.7393,0.7403,0.7377,0.7375,0.7372,0.7364,0.7396,0.7396,0.7428,0.7429,0.7429]},{"header":{"parameterUnit":"m.s-1","parameterCategory":1,"la1":30.2991,"la2":30.254,"lo1":-89.0895,"lo2":-89.0444,"dy":0.0017,"dx":0.0017,"nx":28,"ny":28,"refTime":"2024-07-15T03:00:00:Z","depth":0,"parameterNumber":3,"parameterNumberName":"V-component_of_WINDS"},"data":[0,0,0,0,0,0,0,0,0,0,0,0,0,0,0,0,0,0,0,0,0,0,0,0,0,0,0,0,0,0,0,0,0,0,0,0,0,0,0,0,0,0,0,0,0,0,0,0,0,0,0,0,0,0,0,0,0,0,0.8438,0.8437,0,0.8308,0.8307,0.8305,0.8234,0.8234,0.8234,0.8234,0.8104,0.8101,0.8097,0,0,0,0,0,0,0,0,0,0,0,0,0,0.8627,0.8624,0.8439,0.8437,0.8435,0.8308,0.8307,0.8305,0.8234,0.8234,0.8234,0.8234,0.8105,0.8101,0.8097,0,0,0,0,0,0,0,0,0,0,0,0,0,0.8526,0.8623,0.8439,0.8385,0.8378,0.8309,0.8307,0.8304,0.8234,0.8234,0.8234,0.8234,0.8106,0.8101,0.8096,0.8072,0,0,0.8081,0.8079,0,0,0,0,0,0,0,0,0.8532,0.8519,0.8394,0.8388,0.8381,0.8287,0.8325,0.8226,0.8234,0.8289,0.8234,0.8233,0.8165,0.8155,0.8132,0.8065,0.806,0.8081,0.8078,0.8076,0.8074,0,0,0,0,0,0,0,0.8539,0.8524,0.8387,0.8393,0.8385,0.8367,0.8352,0.8306,0.8231,0.8284,0.8279,0.8264,0.8162,0.8137,0.8128,0.8058,0.8081,0.8077,0.8074,0.8072,0.7961,0.7961,0,0,0,0,0,0,0.8554,0.853,0.8391,0.8383,0.8457,0.8364,0.8347,0.8318,0.8231,0.8217,0.8265,0.8261,0.8145,0.8134,0.8123,0.8085,0.8076,0.8071,0.8068,0.7961,0.7961,0.7961,0,0,0,0,0,0,0.8558,0.8542,0.8396,0.8455,0.8435,0.8361,0.8328,0.8315,0.829,0.8216,0.8202,0.8253,0.8144,0.813,0.8084,0.808,0.8069,0.8065,0.7961,0.7961,0.7961,0.8012,0,0,0,0,0,0,0.8564,0.8544,0.8534,0.8455,0.8432,0.8359,0.8328,0.8313,0.8281,0.8276,0.8201,0.8189,0.8143,0.8092,0.8079,0.8073,0.8061,0.7961,0.7961,0.7961,0.801,0.8014,0.8017,0,0,0,0,0,0.8571,0.8555,0.8534,0.8518,0.8418,0.8359,0.8346,0.8293,0.8281,0.827,0.8222,0.8191,0.8083,0.8087,0.8073,0.8065,0.7961,0.7961,0.7961,0.8009,0.8013,0.8017,0,0,0,0,0,0,0.8638,0.8544,0.852,0.8478,0.8427,0.8347,0.8332,0.83,0.8252,0.8249,0.8186,0.817,0.8129,0.8093,0.81,0.8035,0.8018,0.8016,0.806,0.8063,0.8067,0.8076,0.8057,0,0,0,0,0,0.8647,0.8606,0.8527,0.8498,0.8473,0.8407,0.838,0.8343,0.8288,0.8266,0.8215,0.8163,0.8117,0.8089,0.8042,0.8005,0.7986,0.7992,0.7996,0.7999,0.7997,0.7971,0.7972,0.7961,0.7961,0.7961,0,0,0.8667,0.8611,0.8589,0.851,0.8466,0.8425,0.8389,0.8349,0.8317,0.826,0.8212,0.8173,0.8111,0.8068,0.8047,0.8036,0.7995,0.7999,0.8002,0.7998,0.7971,0.7972,0.7973,0.7961,0.7961,0.7961,0,0,0.8681,0.8636,0.8604,0.856,0.8493,0.8449,0.8441,0.8366,0.8337,0.8287,0.8243,0.8205,0.8128,0.8084,0.8053,0.8047,0.8016,0.8034,0.8051,0.8027,0.8028,0.8028,0.8024,0.8024,0.8033,0.8033,0.8033,0,0.8715,0.865,0.8593,0.8553,0.8518,0.8463,0.843,0.8391,0.8313,0.829,0.828,0.8179,0.8134,0.8079,0.8077,0.8054,0.8042,0.8042,0.8032,0.8032,0.8031,0.8027,0.8026,0.8035,0.8035,0.8035,0.8034,0,0.8693,0.8649,0.8632,0.8555,0.8519,0.8484,0.842,0.839,0.8356,0.8313,0.8262,0.8205,0.8145,0.813,0.8097,0.8069,0.8064,0.8044,0.8026,0.8036,0.803,0.8028,0.8039,0.8038,0.8037,0.8037,0,0,0.8747,0.8637,0.8631,0.8594,0.8515,0.848,0.8441,0.838,0.8355,0.8303,0.8268,0.8202,0.8181,0.8145,0.8107,0.8086,0.8082,0.8068,0.8065,0.8071,0.8045,0.806,0.8059,0.8062,0.8061,0.8061,0.8049,0,0.8748,0.8674,0.862,0.8567,0.8524,0.847,0.8435,0.8383,0.8341,0.8298,0.8252,0.8206,0.8183,0.816,0.8137,0.8088,0.8076,0.8088,0.8028,0.8026,0.8043,0.8056,0.8072,0.8065,0.8047,0.8047,0.8047,0,0.874,0.8687,0.8629,0.8551,0.8531,0.8501,0.8439,0.84,0.8339,0.831,0.8268,0.8228,0.8183,0.817,0.8107,0.8116,0.8088,0.806,0.8059,0.805,0.8036,0.8047,0.8061,0.806,0.8043,0.8043,0.8044,0,0.8782,0.8696,0.8649,0.862,0.8529,0.8509,0.847,0.8408,0.8374,0.8321,0.8298,0.8241,0.821,0.8166,0.8112,0.8108,0.8054,0.8037,0.8028,0.8029,0.8018,0.802,0.8027,0.8003,0.8003,0.8003,0.8003,0,0.8788,0.8754,0.8666,0.8638,0.8597,0.8535,0.8497,0.8454,0.8399,0.8361,0.8311,0.8276,0.8207,0.8164,0.8121,0.8074,0.8061,0.8036,0.8024,0.8039,0.8042,0.8019,0.8018,0.8003,0.8003,0.8003,0.8003,0,0.8828,0.8768,0.8713,0.863,0.8608,0.8582,0.8511,0.8481,0.8435,0.8387,0.8372,0.8301,0.8247,0.8188,0.8115,0.8086,0.8041,0.8026,0.8061,0.8055,0.8048,0.8049,0.804,0.8035,0.8017,0.8017,0.8017,0,0.8835,0.8807,0.8721,0.869,0.8652,0.8605,0.8569,0.8506,0.8471,0.8398,0.8376,0.8318,0.8268,0.8184,0.8126,0.8069,0.8052,0.8052,0.8043,0.8058,0.8049,0.8051,0.8047,0.8055,0.8056,0.8056,0.8056,0,0.8853,0.8824,0.8774,0.8712,0.8671,0.862,0.8567,0.8546,0.8472,0.8435,0.8378,0.8339,0.8263,0.8205,0.8141,0.8102,0.8066,0.806,0.8054,0.8068,0.8089,0.8076,0.8068,0.806,0.806,0.806,0.8059,0.8059,0.8875,0.8847,0.878,0.8725,0.8678,0.863,0.8596,0.8545,0.8496,0.8428,0.8394,0.8337,0.8274,0.8184,0.8145,0.8099,0.8089,0.8082,0.8079,0.8078,0.8081,0.8097,0.8088,0.8088,0.8088,0.8087,0.8087,0,0.8889,0.8843,0.8793,0.8719,0.8675,0.8645,0.8584,0.855,0.85,0.8444,0.8394,0.8328,0.8271,0.8208,0.8147,0.8123,0.8105,0.8109,0.8109,0.81,0.8095,0.8105,0.8124,0.8124,0.8124,0.8124,0.8124,0.8124,0.8891,0.884,0.8803,0.8728,0.8682,0.8624,0.8592,0.8546,0.8501,0.8428,0.838,0.8338,0.8279,0.8213,0.8159,0.8142,0.8121,0.8129,0.8108,0.8104,0.8101,0.8098,0.8107,0.8126,0.8126,0.8116,0.8116,0.8116]}]]